Regional Weather Roundup
Issued by NWS

Home | Current Version | Previous Version | Graphics & Text | Print | Product List | Glossary On
Versions: 1 2 3 4 5 6 7 8 9 10 11 12 13 14 15 16 17 18 19 20 21 22 23 24 25 26 27 28 29 30 31 32 33 34 35 36 37 38 39 40 41 42 43 44 45 46 47 48 49 50
379
ASUS43 KLMK 251702
RWRKY
KENTUCKY REGIONAL WEATHER ROUNDUP
NATIONAL WEATHER SERVICE LOUISVILLE KY
100 PM EDT SUN SEP 25 2016

NOTE "FAIR" INDICATES FEW OR NO CLOUDS BELOW 12,000 FEET
WITH NO SIGNIFICANT WEATHER AND/OR OBSTRUCTIONS TO VISIBILITY.

KYZ001>023-026-027-061>063-070>075-251800-
WESTERN AND SOUTH CENTRAL KENTUCKY

CITY           SKY/WX    TMP DP  RH WIND       PRES   REMARKS
PADUCAH        SUNNY     88  66  48 VRB3      30.07F HX  90
HENDERSON      SUNNY     90  64  43 W3        30.07S HX  91
OWENSBORO      SUNNY    N/A N/A N/A VRB6      30.08F
HOPKINSVILLE   SUNNY     87  65  47 VRB1      30.08F
BOWLING GREEN  SUNNY     88  65  46 SW5       30.09F HX  90
GLASGOW        NOT AVBL
$$

KYZ024-025-028>034-038-045-046-053-251800-
NORTH CENTRAL KENTUCKY

CITY           SKY/WX    TMP DP  RH WIND       PRES   REMARKS
LOUISVILLE/SDF MOSUNNY   88  65  46 CALM      30.09F HX  90
LOUISVILLE/LOU SUNNY     86  66  51 N3        30.10F
FORT KNOX      SUNNY     85  69  57 VRB5      30.09F
$$

KYZ035>037-039>044-047>052-055>060-089>105-251800-
NORTHEAST KENTUCKY

CITY           SKY/WX    TMP DP  RH WIND       PRES   REMARKS
LEXINGTON      SUNNY     87  64  46 E6        30.12F
COVINGTON      MOSUNNY   80  65  59 CALM      30.13F
FRANKFORT      SUNNY     85  65  51 CALM      30.10F
$$

KYZ054-064>069-076>088-106>120-251800-
SOUTHEAST KENTUCKY

CITY           SKY/WX    TMP DP  RH WIND       PRES   REMARKS
JACKSON        SUNNY     82  65  56 CALM      30.14F
LONDON         SUNNY     85  63  47 VRB3      30.12F
SOMERSET       MOSUNNY   82  61  47 CALM      30.12F
MIDDLESBORO    SUNNY     85  65  51 S3        30.12F
MONTICELLO     PTSUNNY   87  67  51 VRB6      30.12F HX  90
$$





USA.gov is the U.S. government's official web portal to all federal, state and local government web resources and services.